TimeEDT,TemperatureF,Dew PointF,Humidity,Sea Level PressureIn,VisibilityMPH,Wind Direction,Wind SpeedMPH,Gust SpeedMPH,PrecipitationIn,Events,Conditions,WindDirDegrees,DateUTC
12:14 AM,48.4,47.1,95,30.08,10.0,Calm,Calm,-,N/A,,Clear,0,2013-09-09 04:14:00
12:33 AM,48.0,46.8,95,30.08,10.0,Calm,Calm,-,N/A,,Clear,0,2013-09-09 04:33:00
12:53 AM,48.0,46.8,95,30.08,10.0,Calm,Calm,-,N/A,,Clear,0,2013-09-09 04:53:00
1:14 AM,47.5,46.4,96,30.09,10.0,Calm,Calm,-,N/A,,Clear,0,2013-09-09 05:14:00
1:33 AM,47.3,46.4,97,30.09,10.0,Calm,Calm,-,N/A,,Clear,0,2013-09-09 05:33:00
1:53 AM,47.3,46.0,95,30.09,10.0,Calm,Calm,-,N/A,,Clear,0,2013-09-09 05:53:00
2:14 AM,45.9,45.1,97,30.08,10.0,Calm,Calm,-,N/A,,Clear,0,2013-09-09 06:14:00
2:33 AM,45.7,45.0,97,30.09,10.0,Calm,Calm,-,N/A,,Clear,0,2013-09-09 06:33:00
2:53 AM,44.6,43.9,97,30.08,10.0,Calm,Calm,-,N/A,,Clear,0,2013-09-09 06:53:00
3:14 AM,45.5,45.3,99,30.08,10.0,Calm,Calm,-,N/A,,Clear,0,2013-09-09 07:14:00
3:33 AM,44.6,44.1,98,30.08,10.0,Calm,Calm,-,N/A,,Clear,0,2013-09-09 07:33:00
3:53 AM,44.6,43.9,97,30.08,10.0,Calm,Calm,-,N/A,,Clear,0,2013-09-09 07:53:00
4:14 AM,47.1,46.6,98,30.08,10.0,Calm,Calm,-,N/A,,Clear,0,2013-09-09 08:14:00
4:33 AM,47.3,46.6,97,30.08,10.0,Calm,Calm,-,N/A,,Clear,0,2013-09-09 08:33:00
4:53 AM,48.7,48.0,97,30.08,10.0,Calm,Calm,-,N/A,,Clear,0,2013-09-09 08:53:00
5:14 AM,49.5,48.7,97,30.07,10.0,Calm,Calm,-,N/A,,Clear,0,2013-09-09 09:14:00
5:33 AM,50.2,49.3,97,30.06,10.0,Calm,Calm,-,N/A,,Clear,0,2013-09-09 09:33:00
5:54 AM,50.4,49.5,97,30.06,10.0,Calm,Calm,-,N/A,,Clear,0,2013-09-09 09:54:00
6:14 AM,52.3,51.6,97,30.05,10.0,SSE,3.5,-,N/A,,Clear,150,2013-09-09 10:14:00
6:33 AM,54.0,52.9,96,30.05,10.0,Calm,Calm,-,N/A,,Clear,0,2013-09-09 10:33:00
6:54 AM,53.6,52.7,97,30.07,10.0,Calm,Calm,-,N/A,,Scattered Clouds,0,2013-09-09 10:54:00
7:14 AM,54.1,53.2,97,30.07,10.0,Calm,Calm,-,N/A,,Scattered Clouds,0,2013-09-09 11:14:00
7:33 AM,54.9,54.0,97,30.07,10.0,Calm,Calm,-,N/A,,Mostly Cloudy,0,2013-09-09 11:33:00
7:54 AM,55.4,54.5,97,30.06,10.0,East,3.5,-,N/A,,Overcast,90,2013-09-09 11:54:00
8:14 AM,57.2,55.4,94,30.05,10.0,Calm,Calm,-,N/A,,Scattered Clouds,0,2013-09-09 12:14:00
8:33 AM,58.6,56.1,91,30.06,10.0,Calm,Calm,-,N/A,,Clear,0,2013-09-09 12:33:00
8:54 AM,60.3,56.5,87,30.06,10.0,Calm,Calm,-,N/A,,Clear,0,2013-09-09 12:54:00
9:14 AM,60.8,56.8,87,30.06,10.0,SE,4.6,-,N/A,,Scattered Clouds,140,2013-09-09 13:14:00
9:33 AM,61.7,57.4,86,30.05,10.0,SE,4.6,-,N/A,,Scattered Clouds,140,2013-09-09 13:33:00
9:54 AM,63.7,57.4,80,30.05,10.0,SE,3.5,-,N/A,,Mostly Cloudy,140,2013-09-09 13:54:00
10:14 AM,64.8,57.4,77,30.05,10.0,SSE,3.5,-,N/A,,Mostly Cloudy,160,2013-09-09 14:14:00
10:33 AM,66.4,56.5,70,30.04,10.0,SSE,3.5,-,N/A,,Mostly Cloudy,160,2013-09-09 14:33:00
10:54 AM,67.5,55.6,66,30.04,10.0,SSE,5.8,-,N/A,,Overcast,150,2013-09-09 14:54:00
11:14 AM,66.6,55.4,67,30.04,10.0,SSE,4.6,-,N/A,,Overcast,160,2013-09-09 15:14:00
11:33 AM,66.9,55.8,67,30.05,10.0,Calm,Calm,-,N/A,,Overcast,0,2013-09-09 15:33:00
11:54 AM,67.3,55.4,66,30.05,10.0,South,3.5,-,N/A,,Overcast,170,2013-09-09 15:54:00
12:14 PM,67.1,56.3,68,30.04,10.0,Calm,Calm,-,N/A,Rain,Light Rain,0,2013-09-09 16:14:00
12:33 PM,65.3,57.0,75,30.04,10.0,SSE,3.5,-,N/A,Rain,Rain,160,2013-09-09 16:33:00
12:54 PM,66.0,56.7,72,30.03,10.0,Calm,Calm,-,N/A,Rain,Light Rain,0,2013-09-09 16:54:00
1:13 PM,67.5,57.0,69,30.02,10.0,SSE,4.6,-,N/A,,Overcast,150,2013-09-09 17:13:00
1:33 PM,67.1,57.6,71,30.01,10.0,South,6.9,-,N/A,,Overcast,170,2013-09-09 17:33:00
1:54 PM,67.5,58.3,72,30.00,10.0,SSE,5.8,-,N/A,,Overcast,160,2013-09-09 17:54:00
2:14 PM,68.9,59.4,72,30.00,10.0,SSE,6.9,-,N/A,,Overcast,150,2013-09-09 18:14:00
2:33 PM,69.8,60.3,72,30.00,10.0,South,5.8,-,N/A,,Overcast,170,2013-09-09 18:33:00
2:54 PM,72.5,61.5,68,29.98,10.0,South,5.8,-,N/A,,Mostly Cloudy,180,2013-09-09 18:54:00
3:14 PM,73.4,62.4,68,29.98,10.0,SE,3.5,-,N/A,,Scattered Clouds,140,2013-09-09 19:14:00
3:33 PM,73.8,62.6,68,29.98,10.0,Calm,Calm,-,N/A,,Clear,0,2013-09-09 19:33:00
3:54 PM,75.4,63.7,67,29.97,10.0,South,6.9,-,N/A,,Clear,180,2013-09-09 19:54:00
4:13 PM,75.6,63.9,67,29.97,10.0,SSE,4.6,-,N/A,,Clear,150,2013-09-09 20:13:00
4:33 PM,76.1,64.0,66,29.95,10.0,SSE,4.6,-,N/A,,Clear,160,2013-09-09 20:33:00
4:54 PM,77.0,65.1,67,29.95,10.0,South,6.9,-,N/A,,Clear,180,2013-09-09 20:54:00
5:13 PM,76.6,65.1,67,29.94,10.0,SSE,8.1,-,N/A,,Clear,150,2013-09-09 21:13:00
5:34 PM,77.0,65.7,68,29.93,10.0,SSE,8.1,-,N/A,,Clear,150,2013-09-09 21:34:00
5:54 PM,76.3,66.0,70,29.93,10.0,South,8.1,-,N/A,,Clear,170,2013-09-09 21:54:00
6:13 PM,75.7,66.2,72,29.92,10.0,SSE,8.1,-,N/A,,Clear,150,2013-09-09 22:13:00
6:34 PM,74.5,66.0,75,29.93,10.0,South,11.5,16.1,N/A,,Clear,180,2013-09-09 22:34:00
6:54 PM,73.4,66.0,78,29.93,10.0,South,5.8,-,N/A,,Clear,170,2013-09-09 22:54:00
7:13 PM,72.7,66.2,80,29.92,10.0,South,9.2,-,N/A,,Clear,170,2013-09-09 23:13:00
7:34 PM,71.6,66.2,83,29.92,10.0,South,4.6,-,N/A,,Clear,170,2013-09-09 23:34:00
7:53 PM,70.9,66.2,85,29.93,10.0,SSE,3.5,-,N/A,,Clear,160,2013-09-09 23:53:00
8:13 PM,70.0,66.0,87,29.94,10.0,Calm,Calm,-,N/A,,Scattered Clouds,0,2013-09-10 00:13:00
8:34 PM,69.1,65.7,89,29.93,10.0,SE,4.6,-,N/A,,Mostly Cloudy,140,2013-09-10 00:34:00
8:53 PM,68.9,65.7,89,29.93,10.0,SSE,6.9,-,N/A,,Scattered Clouds,160,2013-09-10 00:53:00
9:13 PM,68.9,65.7,89,29.92,7.0,South,8.1,-,N/A,,Clear,170,2013-09-10 01:13:00
9:34 PM,68.9,65.8,90,29.93,7.0,South,6.9,-,N/A,,Clear,170,2013-09-10 01:34:00
9:53 PM,68.5,65.7,90,29.93,7.0,South,4.6,-,N/A,,Clear,190,2013-09-10 01:53:00
10:13 PM,68.9,65.7,89,29.93,7.0,South,9.2,-,N/A,,Clear,180,2013-09-10 02:13:00
10:34 PM,69.6,66.2,89,29.92,7.0,South,8.1,-,N/A,,Mostly Cloudy,190,2013-09-10 02:34:00
10:53 PM,70.3,66.2,87,29.92,7.0,South,5.8,-,N/A,,Mostly Cloudy,190,2013-09-10 02:53:00
11:13 PM,70.7,66.6,87,29.91,10.0,South,8.1,-,N/A,,Scattered Clouds,190,2013-09-10 03:13:00
11:34 PM,71.1,66.7,86,29.90,10.0,South,6.9,-,N/A,,Clear,190,2013-09-10 03:34:00
11:53 PM,71.6,67.1,86,29.90,10.0,South,8.1,-,N/A,,Clear,190,2013-09-10 03:53:00